JS2HDO-13 Weather Reports


Display with metric or nautical units.
time (UTC)temp
F
wind
direction
speed
MPH
gust
MPH
rain 1hr
in
rain 24hr
in
rain mn
in
humidity
%
barometer
mb
20260505101853 52 235 0.0 1.0 0.00 0.00 0.00 76 1021.3
20260505100854 52 236 0.0 1.0 0.00 0.00 0.00 75 1021.2
20260505095855 53 236 0.0 0.0 0.00 0.00 0.00 75 1021.2
20260505095657 53 236 0.0 1.0 0.00 0.00 0.00 74 1021.2
20260505094853 53 236 0.0 1.0 0.00 0.00 0.00 73 1020.9
20260505093854 54 236 0.0 1.0 0.00 0.00 0.00 71 1020.8
20260505093656 54 236 0.0 1.0 0.00 0.00 0.00 71 1020.8
20260505092854 54 235 0.0 1.0 0.00 0.00 0.00 68 1020.7
20260505091854 55 252 0.0 1.0 0.00 0.00 0.00 69 1020.5
20260505091658 55 252 0.0 1.0 0.00 0.00 0.00 69 1020.5
20260505090854 55 227 0.0 1.0 0.00 0.00 0.00 68 1020.4
20260505085854 56 268 0.0 1.0 0.00 0.00 0.00 68 1020.2
20260505085657 56 233 0.0 0.0 0.00 0.00 0.00 68 1020.2
20260505084853 56 137 0.0 1.0 0.00 0.00 0.00 67 1020.1
20260505083854 56 154 1.0 6.0 0.00 0.00 0.00 66 1020.2
20260505083656 56 222 1.0 5.0 0.00 0.00 0.00 66 1020.1
20260505082854 57 272 0.0 2.0 0.00 0.00 0.00 66 1020.2
20260505081854 57 305 0.0 0.0 0.00 0.00 0.00 66 1020.1
20260505080854 58 156 0.0 0.0 0.00 0.00 0.00 64 1019.9
20260505075855 58 207 0.0 1.0 0.00 0.00 0.00 64 1019.8
20260505074854 59 257 0.0 0.0 0.00 0.00 0.00 63 1019.8
20260505073854 59 189 0.0 1.0 0.00 0.00 0.00 63 1019.9
20260505073657 59 141 0.0 2.0 0.00 0.00 0.00 63 1019.9
20260505072854 59 322 0.0 0.0 0.00 0.00 0.00 62 1019.7
20260505071855 60 101 0.0 1.0 0.00 0.00 0.00 61 1019.6
20260505070853 60 51 1.0 2.0 0.00 0.00 0.00 61 1019.5
20260505065853 61 86 0.0 2.0 0.00 0.00 0.00 60 1019.4
20260505064854 62 135 0.0 1.0 0.00 0.00 0.00 58 1019.3
20260505063855 62 73 0.0 1.0 0.00 0.00 0.00 58 1019.2
20260505062853 63 42 0.0 1.0 0.00 0.00 0.00 57 1019.2
20260505061855 63 19 0.0 2.0 0.00 0.00 0.00 55 1019.1
20260505060853 63 156 0.0 1.0 0.00 0.00 0.00 57 1019.1
20260505055854 63 123 1.0 2.0 0.00 0.00 0.00 58 1019.2
20260505054854 63 95 0.0 1.0 0.00 0.00 0.00 58 1018.9
20260505053853 63 46 0.0 1.0 0.00 0.00 0.00 57 1019.1
20260505052854 63 52 0.0 3.0 0.00 0.00 0.00 58 1019.1
20260505051853 63 11 3.0 5.0 0.00 0.00 0.00 56 1019.2
20260505050854 63 58 2.0 3.0 0.00 0.00 0.00 55 1019.1
20260505041656 64 77 1.0 3.0 0.00 0.00 0.00 45 1019.3
20260505040855 64 27 2.0 8.0 0.00 0.00 0.00 45 1019.2
20260505035854 64 0 1.0 2.0 0.00 0.00 0.00 45 1019.3
20260505035656 64 358 2.0 3.0 0.00 0.00 0.00 45 1019.3
20260505034854 64 191 1.0 3.0 0.00 0.00 0.00 46 1019.4
20260505033854 64 52 2.0 3.0 0.00 0.00 0.00 46 1019.2
20260505032853 64 69 0.0 2.0 0.00 0.00 0.00 47 1019.2
20260505031853 64 12 2.0 9.0 0.00 0.00 0.00 48 1019.2
20260505030855 64 7 5.0 7.0 0.00 0.00 0.00 46 1019.3
20260505025854 65 16 3.0 7.0 0.00 0.00 0.00 45 1019.2
20260505024853 65 323 1.0 1.0 0.00 0.00 0.00 42 1019.1
20260505023856 65 291 0.0 3.0 0.00 0.00 0.00 43 1019.1
20260505023658 65 6 1.0 3.0 0.00 0.00 0.00 43 1019.1
20260505022856 65 326 0.0 1.0 0.00 0.00 0.00 44 1019.0
20260505021855 65 17 3.0 7.0 0.00 0.00 0.00 43 1019.0
20260505020855 63 19 1.0 6.0 0.00 0.00 0.00 44 1019.0
20260505015856 65 333 2.0 3.0 0.00 0.00 0.00 43 1019.0
20260505015659 65 308 0.0 3.0 0.00 0.00 0.00 45 1018.9
20260505014855 64 19 2.0 3.0 0.00 0.00 0.00 48 1018.8
20260505013856 64 54 2.0 3.0 0.00 0.00 0.00 47 1018.7
20260505013658 65 7 1.0 3.0 0.00 0.00 0.00 48 1018.7
20260505012855 65 48 1.0 2.0 0.00 0.00 0.00 50 1018.5
20260505011856 64 65 2.0 3.0 0.00 0.00 0.00 50 1018.4
20260505010855 64 163 1.0 2.0 0.00 0.00 0.00 52 1018.3
20260505005855 64 12 1.0 2.0 0.00 0.00 0.00 52 1018.2
20260505004856 63 72 0.0 1.0 0.00 0.00 0.00 54 1018.2
20260505003855 63 50 1.0 2.0 0.00 0.00 0.00 53 1018.1
20260505002856 64 80 0.0 2.0 0.00 0.00 0.00 55 1018.1
20260505001854 63 81 1.0 2.0 0.00 0.00 0.00 55 1017.8
20260505000855 63 65 0.0 3.0 0.00 0.00 0.00 56 1017.8
20260504235856 63 75 0.0 0.0 0.00 0.00 0.00 58 1017.8
20260504235658 62 71 0.0 3.0 0.00 0.00 0.00 59 1017.8
20260504234856 61 19 1.0 2.0 0.00 0.00 0.00 59 1017.8
20260504233855 61 86 0.0 2.0 0.00 0.00 0.00 59 1017.8
20260504232856 60 34 0.0 2.0 0.00 0.00 0.00 58 1017.8
20260504231855 61 42 1.0 3.0 0.00 0.00 0.00 57 1017.8
20260504230855 62 349 1.0 3.0 0.00 0.00 0.00 59 1017.7
20260504225855 62 98 0.0 2.0 0.00 0.00 0.00 62 1017.7
20260504224856 61 39 1.0 1.0 0.00 0.00 0.00 63 1017.5
20260504223855 63 54 0.0 1.0 0.00 0.00 0.00 61 1017.4
20260504223659 63 21 1.0 1.0 0.00 0.00 0.00 60 1017.3
20260504222855 64 133 0.0 0.0 0.00 0.00 0.00 58 1017.0
20260504221855 62 209 0.0 0.0 0.00 0.00 0.00 61 1016.8
20260504220855 62 176 0.0 0.0 0.00 0.00 0.00 62 1016.6
20260504215856 60 154 0.0 0.0 0.00 0.00 0.00 63 1016.5
20260504215658 60 154 0.0 0.0 0.00 0.00 0.00 63 1016.5
20260504214856 58 238 0.0 1.0 0.00 0.00 0.00 68 1016.5
20260504213856 57 238 0.0 0.0 0.00 0.00 0.00 72 1016.3
20260504213658 56 238 0.0 1.0 0.00 0.00 0.00 72 1016.3
20260504212856 56 272 0.0 1.0 0.00 0.00 0.00 72 1016.2
20260504211854 56 270 0.0 1.0 0.00 0.01 0.00 72 1015.9
20260504210856 56 286 0.0 0.0 0.00 0.02 0.00 73 1015.7
20260504205855 55 283 0.0 0.0 0.00 0.03 0.00 78 1015.5
20260504205659 55 283 0.0 0.0 0.00 0.03 0.00 78 1015.5
20260504204855 54 283 0.0 0.0 0.00 0.03 0.00 79 1015.2
20260504203855 51 283 0.0 0.0 0.00 0.04 0.00 84 1014.9
20260504203657 50 283 0.0 1.0 0.00 0.04 0.00 84 1014.8
20260504202855 49 283 0.0 0.0 0.00 0.05 0.00 83 1014.8
20260504201855 49 283 0.0 1.0 0.00 0.06 0.00 83 1014.5
20260504200856 49 264 0.0 1.0 0.00 0.08 0.00 83 1014.4
20260504195856 49 264 0.0 1.0 0.00 0.13 0.00 82 1014.1
20260504195658 49 264 0.0 1.0 0.00 0.14 0.00 82 1014.0
20260504194856 49 278 0.0 1.0 0.00 0.19 0.00 82 1013.7
20260504193856 49 279 0.0 1.0 0.00 0.26 0.00 82 1013.5
20260504193658 49 279 0.0 0.0 0.00 0.27 0.00 82 1013.4
20260504192854 49 279 0.0 1.0 0.00 0.31 0.00 82 1013.1
20260504191855 49 304 0.0 1.0 0.00 0.32 0.00 81 1013.0
20260504191657 49 311 0.0 0.0 0.00 0.32 0.00 82 1013.1
20260504190856 49 329 0.0 0.0 0.00 0.32 0.00 82 1012.7
20260504185856 49 352 0.0 1.0 0.00 0.34 0.00 82 1012.4
20260504185659 49 352 0.0 1.0 0.00 0.34 0.00 82 1012.3
20260504184855 49 23 0.0 1.0 0.00 0.35 0.00 81 1012.1
20260504183855 51 26 0.0 0.0 0.00 0.35 0.00 79 1011.8
20260504183657 51 26 0.0 0.0 0.00 0.36 0.00 78 1011.8
20260504182855 51 26 0.0 0.0 0.00 0.36 0.00 77 1011.6
20260504181855 51 318 0.0 0.0 0.00 0.37 0.00 77 1011.3
20260504181657 52 343 0.0 1.0 0.00 0.37 0.00 77 1011.2
20260504180855 52 347 0.0 0.0 0.00 0.37 0.00 75 1011.0
20260504175856 53 323 0.0 0.0 0.00 0.39 0.00 75 1011.0
20260504175658 53 323 1.0 3.0 0.00 0.40 0.00 75 1011.0
20260504174854 53 41 0.0 3.0 0.00 0.41 0.00 76 1010.7
20260504173855 53 345 1.0 2.0 0.00 0.42 0.00 77 1010.5
20260504173657 53 341 1.0 3.0 0.00 0.42 0.00 77 1010.5
20260504172856 53 85 0.0 1.0 0.00 0.43 0.00 77 1010.1
20260504171855 54 354 0.0 0.0 0.00 0.44 0.00 77 1009.9
20260504171659 54 11 0.0 1.0 0.00 0.44 0.00 76 1009.8
20260504170855 53 329 0.0 1.0 0.00 0.45 0.00 77 1009.7
20260504150855 53 257 0.0 1.0 0.00 0.83 0.00 73 1007.4
20260504140855 54 187 0.0 3.0 0.00 0.88 0.85 68 1005.9